map of CZL home
CZL - Airport
Location
City:  Constantine, Constantine, Algeria
Name:Mohamed Boudiaf International Airport
ICAO:DABC
IATA:CZL

Details
Type:Airport (Aerodrome, Airfield)
Use:Public/Civil, International (customs port of entry)
Latitude:3617'07"N (36.285278)
Longitude:637'09"E (6.619167)
Elevation:2316 ft (706 m)
Variation:1.79E (WMM2015 magnetic declination)
0.10 annual change
Runways:2
Longest:9843 × 148 ft (3000 × 45 m)

Time
Time Zone:UTC+1
Local Time:

Weather
METAR:DABC 190200Z 17002KT CAVOK 27/08 Q1016
TAF:DABC 182300Z 1900/2024 18006KT CAVOK
BECMG 1909/1911 36012KT
TEMPO 1913/1920 FEW030CB PROB30
TEMPO 1916/1919
BECMG 1922/1924 VRB02KT

Related Locations
Nearby:
Farthest:GIS: 11939 mi / 19214 km
Gisborne, GIS, NZ

Find:

   beyond  
but within

Other Information
Maps:
NOTAMs:
Links:
Sources:

  
  • flag of Algeria
  

Sectional Chart

Flight Planning
at skyvector.com

Satellite Image

Google Maps Satellite view

 

Copyright © 2004-2018 Karl L. Swartz. All rights reserved.
The Great Circle Mapper name and logo are trademarks of the Great Circle Mapper.
All other trademarks mentioned herein belong to their respective owners.
Please see credits for attibutions and further copyright information.

  Follow gcmap on Facebook Follow gcmap on Twitter Follow gcmap on Google+ GCmap on LinkedIn

hCard Microformat

Geo Microformat